Starlink 32849

operational
NORAD ID: 62872 Int'l Des: 2025-022 Owner: SPXS Country: US Constellation: starlink
LEOCIRCULAR

Starlink 32849について

説明を読み込み中...

リアルタイム位置

3D地球を読み込み中...

次回通過

高度履歴

Altitude vs Time

uPlot chart will show altitude changes over time

軌道要素

1 62872U 25022U 25354.84077168 .00014111 00000-0 48753-3 0 9994
2 62872 53.1555 136.1731 0000579 134.8830 225.2217 15.30207446 49827
Epoch: Dec 20, 2025 • Age: 5 hours

現在のステータス

高度 476.4 km
速度 7.63 km/s
衛星直下点 29.65°N, 177.69°E
打ち上げ日 Feb 2, 2025
運用期間 0.8 years
タイプ internet

技術仕様

分類 Payload
質量 730.00 kg
乾燥質量 700.00 kg
総質量 730.00 kg
長さ 0.30 m
直径 4.10 m
スパン 29.00 m
形状 Box + pan
製造者 SPXS
バスタイプ Starlink V2M
フェーズステータス In Orbit
所有者/国 SPXS/US

大規模コンステレーション

Loading constellations...